�������l�o���
Date,Time,MP-1(��Sv/h),MP-2(��Sv/h),MP-3(��Sv/h),MP-4(��Sv/h),MP-5(��Sv/h),MP-6(��Sv/h),MP-7(��Sv/h),MP-8(��Sv/h),����,����(m/s),���J
2020/11/28,00:00,0.673,0.967,0.613,1.202,0.856,0.384,0.676,0.637,��쐼,3.6,��
2020/11/28,00:10,0.674,0.968,0.613,1.204,0.860,0.384,0.676,0.636,��쐼,3.4,��
2020/11/28,00:20,0.672,0.968,0.612,1.204,0.856,0.385,0.677,0.636,��쐼,3.2,��
2020/11/28,00:30,0.673,0.967,0.613,1.201,0.855,0.384,0.676,0.637,��쐼,3.2,��
2020/11/28,00:40,0.674,0.968,0.612,1.203,0.856,0.383,0.677,0.637,��쐼,3.4,��
2020/11/28,00:50,0.673,0.966,0.612,1.204,0.856,0.385,0.679,0.636,��쐼,3.5,��
2020/11/28,01:00,0.674,0.968,0.613,1.203,0.856,0.385,0.677,0.637,��쐼,3.5,��
2020/11/28,01:10,0.672,0.968,0.612,1.205,0.857,0.385,0.675,0.636,�쐼,3.8,��
2020/11/28,01:20,0.673,0.968,0.611,1.205,0.857,0.384,0.678,0.637,��쐼,3.6,��
2020/11/28,01:30,0.670,0.966,0.612,1.205,0.856,0.385,0.677,0.636,��쐼,3.9,��
2020/11/28,01:40,0.674,0.968,0.612,1.202,0.856,0.384,0.679,0.637,��쐼,4.3,��
2020/11/28,01:50,0.677,0.967,0.614,1.203,0.858,0.384,0.679,0.637,��쐼,3.3,��
2020/11/28,02:00,0.673,0.967,0.611,1.203,0.858,0.385,0.676,0.637,��쐼,4.0,��
2020/11/28,02:10,0.675,0.968,0.612,1.203,0.856,0.385,0.678,0.637,��쐼,3.5,�L
2020/11/28,02:20,0.675,0.968,0.612,1.205,0.857,0.383,0.678,0.638,��쐼,3.1,��
2020/11/28,02:30,0.673,0.968,0.612,1.203,0.858,0.384,0.678,0.639,��쐼,2.8,��
2020/11/28,02:40,0.674,0.968,0.613,1.205,0.858,0.385,0.679,0.639,��쐼,2.6,��
2020/11/28,02:50,0.675,0.969,0.614,1.203,0.855,0.384,0.677,0.637,��쐼,3.2,��
2020/11/28,03:00,0.674,0.968,0.612,1.206,0.856,0.385,0.678,0.638,��쐼,2.2,��
2020/11/28,03:10,0.675,0.969,0.611,1.205,0.858,0.384,0.678,0.637,�쐼,1.4,��
2020/11/28,03:20,0.673,0.968,0.612,1.202,0.858,0.384,0.676,0.638,���쐼,0.9,��
2020/11/28,03:30,0.674,0.969,0.614,1.207,0.857,0.385,0.677,0.636,���k��,0.8,��
2020/11/28,03:40,0.675,0.968,0.612,1.205,0.857,0.384,0.679,0.636,�k��,1.2,��
2020/11/28,03:50,0.674,0.970,0.614,1.203,0.857,0.386,0.677,0.638,���k��,1.7,��
2020/11/28,04:00,0.673,0.969,0.614,1.205,0.857,0.384,0.678,0.636,���k��,2.3,��
2020/11/28,04:10,0.674,0.968,0.614,1.203,0.857,0.384,0.679,0.637,���k��,1.9,��
2020/11/28,04:20,0.676,0.967,0.614,1.204,0.856,0.385,0.677,0.638,���k��,2.3,��
2020/11/28,04:30,0.676,0.969,0.613,1.204,0.858,0.386,0.676,0.636,�k��,1.5,��
2020/11/28,04:40,0.675,0.967,0.613,1.204,0.859,0.385,0.677,0.639,-,CALM,��
2020/11/28,04:50,0.675,0.969,0.612,1.205,0.858,0.386,0.679,0.638,��쓌,1.4,��
2020/11/28,05:00,0.674,0.967,0.613,1.203,0.856,0.385,0.678,0.638,��쓌,1.7,��
2020/11/28,05:10,0.675,0.969,0.615,1.202,0.858,0.385,0.678,0.638,��쓌,2.2,�L
2020/11/28,05:20,0.676,0.968,0.614,1.204,0.857,0.386,0.678,0.636,�쓌,1.9,�L
2020/11/28,05:30,0.676,0.970,0.614,1.204,0.858,0.386,0.678,0.638,���쓌,1.4,�L
2020/11/28,05:40,0.675,0.968,0.612,1.201,0.858,0.386,0.679,0.638,���k��,2.2,�L
2020/11/28,05:50,0.676,0.968,0.614,1.206,0.860,0.386,0.679,0.637,���쓌,1.7,��
2020/11/28,06:00,0.675,0.967,0.614,1.204,0.858,0.385,0.678,0.638,���k��,0.9,��
2020/11/28,06:10,0.673,0.970,0.614,1.205,0.857,0.386,0.679,0.638,�k�k��,1.7,��
2020/11/28,06:20,0.674,0.970,0.613,1.204,0.858,0.383,0.678,0.638,�k�k��,5.9,��
2020/11/28,06:30,0.677,0.969,0.613,1.203,0.857,0.384,0.677,0.637,�k�k��,7.8,��
2020/11/28,06:40,0.674,0.968,0.614,1.204,0.860,0.384,0.677,0.638,�k�k��,7.1,��
2020/11/28,06:50,0.676,0.967,0.614,1.203,0.857,0.385,0.675,0.637,�k�k��,6.5,��
2020/11/28,07:00,0.673,0.969,0.613,1.205,0.857,0.384,0.679,0.638,�k��,8.7,��
2020/11/28,07:10,0.673,0.968,0.613,1.205,0.857,0.386,0.678,0.637,�k��,10.0,��
2020/11/28,07:20,0.674,0.967,0.612,1.204,0.858,0.385,0.677,0.636,�k��,10.2,��
2020/11/28,07:30,0.674,0.968,0.611,1.204,0.857,0.386,0.677,0.637,�k��,9.7,��
2020/11/28,07:40,0.675,0.967,0.612,1.204,0.856,0.385,0.678,0.637,�k��,9.6,��
2020/11/28,07:50,0.674,0.966,0.613,1.204,0.854,0.384,0.678,0.638,�k��,7.4,��
2020/11/28,08:00,0.674,0.963,0.614,1.204,0.855,0.385,0.678,0.639,�k��,6.1,��
2020/11/28,08:10,0.674,0.967,0.613,1.203,0.855,0.384,0.678,0.637,�k�k��,5.6,��
2020/11/28,08:20,0.674,0.964,0.613,1.206,0.857,0.385,0.677,0.638,�k�k��,8.0,��
2020/11/28,08:30,0.675,0.966,0.614,1.205,0.857,0.384,0.680,0.638,�k�k��,9.6,��
2020/11/28,08:40,0.675,0.966,0.614,1.204,0.858,0.386,0.678,0.638,�k��,10.2,��
2020/11/28,08:50,0.675,0.968,0.613,1.205,0.856,0.384,0.678,0.637,�k��,10.5,��
2020/11/28,09:00,0.676,0.966,0.614,1.203,0.859,0.385,0.678,0.638,�k��,10.9,��
2020/11/28,09:10,0.677,0.966,0.614,1.204,0.859,0.383,0.677,0.638,�k��,10.3,��
2020/11/28,09:20,0.676,0.967,0.615,1.204,0.857,0.386,0.677,0.638,�k�k��,10.3,��
2020/11/28,09:30,0.675,0.963,0.614,1.206,0.857,0.385,0.677,0.639,�k�k��,9.3,��
2020/11/28,09:40,0.675,0.965,0.613,1.207,0.858,0.384,0.678,0.638,�k�k��,10.5,��
2020/11/28,09:50,0.676,0.965,0.613,1.207,0.856,0.384,0.678,0.638,�k��,9.1,��
2020/11/28,10:00,0.676,0.965,0.613,1.207,0.857,0.385,0.678,0.640,�k��,11.7,��
2020/11/28,10:10,0.676,0.962,0.613,1.207,0.860,0.385,0.679,0.639,�k�k��,8.8,��
2020/11/28,10:20,0.676,0.969,0.613,1.207,0.859,0.384,0.676,0.638,�k��,8.0,��
2020/11/28,10:30,0.676,0.968,0.614,1.204,0.858,0.384,0.677,0.639,�k�k��,6.5,��
2020/11/28,10:40,0.674,0.966,0.615,1.204,0.860,0.384,0.678,0.640,�k��,7.5,��
2020/11/28,10:50,0.673,0.965,0.614,1.207,0.857,0.383,0.677,0.639,�k��,9.5,��
2020/11/28,11:00,0.674,0.966,0.614,1.206,0.856,0.383,0.678,0.639,�k��,8.2,��
2020/11/28,11:10,0.674,0.966,0.614,1.204,0.857,0.385,0.679,0.640,�k��,10.5,��
2020/11/28,11:20,0.675,0.968,0.614,1.207,0.857,0.384,0.677,0.638,�k��,9.2,��
2020/11/28,11:30,0.674,0.967,0.612,1.209,0.860,0.385,0.679,0.639,���k��,7.1,��
2020/11/28,11:40,0.674,0.969,0.613,1.206,0.860,0.384,0.679,0.639,���k��,7.6,��
2020/11/28,11:50,0.676,0.969,0.613,1.208,0.858,0.384,0.678,0.640,�k��,7.7,��
2020/11/28,12:00,0.675,0.969,0.613,1.208,0.857,0.384,0.677,0.638,�k��,9.1,��
2020/11/28,12:10,0.675,0.969,0.614,1.208,0.858,0.385,0.676,0.640,�k��,10.6,��
2020/11/28,12:20,0.674,0.972,0.615,1.207,0.858,0.386,0.678,0.639,���k��,12.1,��
2020/11/28,12:30,0.672,0.970,0.614,1.208,0.859,0.385,0.677,0.639,�k��,9.7,��
2020/11/28,12:40,0.675,0.969,0.614,1.209,0.858,0.385,0.677,0.637,�k��,9.5,��
2020/11/28,12:50,0.675,0.968,0.613,1.208,0.857,0.386,0.678,0.638,���k��,10.6,��
2020/11/28,13:00,0.674,0.967,0.614,1.208,0.859,0.386,0.679,0.636,���k��,9.0,��
2020/11/28,13:10,0.673,0.967,0.613,1.207,0.859,0.385,0.677,0.635,���k��,8.0,��
2020/11/28,13:20,0.676,0.969,0.614,1.210,0.857,0.385,0.678,0.636,���k��,9.1,��
2020/11/28,13:30,0.675,0.970,0.615,1.209,0.858,0.384,0.677,0.637,���k��,11.3,��
2020/11/28,13:40,0.676,0.966,0.615,1.209,0.859,0.385,0.678,0.635,���k��,8.1,�L
2020/11/28,13:50,0.676,0.967,0.617,1.209,0.858,0.386,0.678,0.638,���k��,10.0,�L
2020/11/28,14:00,0.677,0.969,0.616,1.211,0.860,0.385,0.677,0.637,���k��,7.5,��
2020/11/28,14:10,0.675,0.969,0.615,1.209,0.859,0.383,0.677,0.636,��,7.5,��
2020/11/28,14:20,0.674,0.970,0.614,1.208,0.861,0.385,0.677,0.636,��,6.6,��
2020/11/28,14:30,0.675,0.969,0.615,1.211,0.860,0.385,0.677,0.636,���k��,7.7,��
2020/11/28,14:40,0.677,0.970,0.615,1.209,0.861,0.385,0.676,0.638,��,6.6,��
2020/11/28,14:50,0.676,0.971,0.615,1.212,0.861,0.385,0.678,0.637,���k��,7.5,��
2020/11/28,15:00,0.675,0.971,0.615,1.211,0.862,0.386,0.679,0.638,�k��,7.4,�L
2020/11/28,15:10,0.676,0.976,0.615,1.209,0.862,0.386,0.679,0.639,�k��,6.6,�L
2020/11/28,15:20,0.674,0.977,0.615,1.210,0.861,0.387,0.676,0.639,���k��,6.6,�L
2020/11/28,15:30,0.675,0.973,0.614,1.211,0.861,0.385,0.678,0.639,�k��,6.8,��
2020/11/28,15:40,0.675,0.975,0.614,1.209,0.861,0.385,0.677,0.637,�k��,5.3,�L
2020/11/28,15:50,0.675,0.973,0.614,1.211,0.862,0.386,0.677,0.638,�k��,4.9,��
2020/11/28,16:00,0.675,0.975,0.615,1.209,0.863,0.384,0.677,0.638,�k��,5.9,��
2020/11/28,16:10,0.676,0.974,0.615,1.211,0.861,0.385,0.679,0.638,�k��,5.7,��
2020/11/28,16:20,0.674,0.975,0.614,1.211,0.860,0.384,0.680,0.637,�k��,5.3,�L
2020/11/28,16:30,0.675,0.974,0.615,1.211,0.862,0.383,0.678,0.637,�k��,3.6,�L
2020/11/28,16:40,0.674,0.974,0.615,1.210,0.863,0.385,0.678,0.638,�k��,3.3,��
2020/11/28,16:50,0.675,0.974,0.615,1.210,0.858,0.384,0.679,0.637,���k��,2.6,��
2020/11/28,17:00,0.674,0.973,0.615,1.208,0.860,0.383,0.678,0.638,�k��,0.6,��
2020/11/28,17:10,0.674,0.974,0.615,1.208,0.862,0.383,0.677,0.638,�k��,1.4,��
2020/11/28,17:20,0.675,0.973,0.614,1.209,0.861,0.384,0.678,0.636,�k��,2.0,��
2020/11/28,17:30,0.673,0.973,0.614,1.207,0.861,0.384,0.678,0.638,�k�k��,2.3,��
2020/11/28,17:40,0.673,0.973,0.613,1.209,0.860,0.384,0.678,0.637,�k�k��,1.5,��
2020/11/28,17:50,0.673,0.972,0.612,1.208,0.861,0.383,0.680,0.636,�k��,1.7,��
2020/11/28,18:00,0.672,0.973,0.615,1.208,0.859,0.384,0.678,0.638,�k,1.4,��
2020/11/28,18:10,0.673,0.972,0.612,1.211,0.862,0.385,0.677,0.639,�k,0.6,��
2020/11/28,18:20,0.674,0.972,0.612,1.209,0.860,0.383,0.676,0.637,�k�k��,0.9,��
2020/11/28,18:30,0.674,0.972,0.615,1.208,0.861,0.384,0.678,0.638,�쐼,0.6,��
2020/11/28,18:40,0.672,0.970,0.613,1.206,0.859,0.384,0.679,0.635,��쐼,2.0,��
2020/11/28,18:50,0.673,0.970,0.615,1.207,0.859,0.383,0.678,0.637,�쐼,1.9,��
2020/11/28,19:00,0.673,0.973,0.610,1.208,0.859,0.383,0.678,0.637,�쐼,3.0,��
2020/11/28,19:10,0.673,0.969,0.612,1.209,0.859,0.384,0.677,0.637,�쐼,4.9,��
2020/11/28,19:20,0.673,0.971,0.614,1.208,0.858,0.384,0.676,0.637,���쐼,6.9,��
2020/11/28,19:30,0.674,0.972,0.614,1.208,0.860,0.383,0.677,0.637,���쐼,7.2,��
2020/11/28,19:40,0.672,0.971,0.612,1.207,0.861,0.383,0.678,0.637,���쐼,6.0,��
2020/11/28,19:50,0.674,0.974,0.612,1.208,0.861,0.382,0.677,0.637,���쐼,4.4,��
2020/11/28,20:00,0.671,0.971,0.612,1.209,0.858,0.383,0.677,0.637,��,3.6,��
2020/11/28,20:10,0.672,0.970,0.611,1.209,0.863,0.383,0.677,0.635,��,3.2,��
2020/11/28,20:20,0.672,0.971,0.612,1.208,0.858,0.385,0.677,0.637,��,2.9,��
2020/11/28,20:30,0.674,0.972,0.612,1.208,0.861,0.383,0.678,0.637,��,2.6,��
2020/11/28,20:40,0.673,0.972,0.614,1.209,0.859,0.384,0.676,0.637,��,1.2,��
2020/11/28,20:50,0.673,0.971,0.612,1.208,0.861,0.384,0.676,0.637,���쐼,1.4,��
2020/11/28,21:00,0.673,0.972,0.611,1.207,0.859,0.383,0.676,0.636,���쐼,1.2,��
2020/11/28,21:10,0.672,0.971,0.612,1.207,0.862,0.382,0.676,0.636,���k��,1.7,��
2020/11/28,21:20,0.672,0.971,0.612,1.209,0.861,0.382,0.677,0.636,���k��,2.5,��
2020/11/28,21:30,0.672,0.971,0.612,1.208,0.858,0.384,0.677,0.636,�k��,3.0,��
2020/11/28,21:40,0.672,0.970,0.611,1.208,0.860,0.384,0.676,0.637,�k�k��,3.2,��
2020/11/28,21:50,0.671,0.969,0.613,1.208,0.858,0.384,0.675,0.637,�k�k��,5.2,��
2020/11/28,22:00,0.673,0.972,0.612,1.206,0.860,0.382,0.677,0.636,�k��,3.9,��
2020/11/28,22:10,0.672,0.970,0.611,1.205,0.860,0.383,0.674,0.636,�k��,3.7,��
2020/11/28,22:20,0.673,0.971,0.613,1.206,0.859,0.383,0.677,0.637,�k��,4.2,��
2020/11/28,22:30,0.673,0.970,0.614,1.208,0.859,0.382,0.676,0.636,�k��,4.8,��
2020/11/28,22:40,0.672,0.968,0.613,1.206,0.859,0.382,0.676,0.635,���k��,4.3,��
2020/11/28,22:50,0.672,0.970,0.613,1.206,0.858,0.383,0.676,0.636,���k��,5.8,��
2020/11/28,23:00,0.673,0.970,0.612,1.208,0.860,0.382,0.678,0.636,��,6.8,��
2020/11/28,23:10,0.674,0.970,0.613,1.207,0.860,0.383,0.678,0.638,��,6.5,��
2020/11/28,23:20,0.672,0.971,0.614,1.208,0.859,0.382,0.676,0.637,��,6.1,��
2020/11/28,23:30,0.673,0.970,0.612,1.206,0.858,0.382,0.677,0.636,��,5.9,��
2020/11/28,23:40,0.671,0.972,0.612,1.208,0.860,0.383,0.676,0.636,��,5.7,��
2020/11/28,23:50,0.671,0.972,0.611,1.208,0.859,0.381,0.676,0.636,���쐼,5.8,��
